User: anonymous   Login
Location: Eimen
(51.8766°N, 9.7806°E)
Time: 12:57:32
(UTC+00:00)
Language:

Cosmos 841 Rocket - Orbit

View from above orbital plane
View from above orbital plane
View from above satellite
View from above satellite

Ground track
Ground track

The orbit data is extracted from the following two-line orbital elements,

1 09023U 76069B   24202.89329424  .00000769  00000-0  24971-3 0  9991
2 09023  74.0442 353.7583 0018032 240.4403 119.4956 14.40449858517388
Epoch (UTC): 20 July 2024 21:26:20
Eccentricity: 0.0018032
inclination: 74.0442°
perigee height: 744 km
apogee height: 770 km
right ascension of ascending node: 353.7583°
argument of perigee: 240.4403°
revolutions per day: 14.40449858
mean anomaly at epoch: 119.4956°
orbit number at epoch: 51738

The dashed part of the orbit path shows where the satellite is in the earth's shadow,  

DLR